Погода Нижний Новгород

Хотите узнать прогноз погоды в Нижнем Новгороде? Тогда Вам сюда: Погода в Нижнем Новгороде

Поиск расширенной информации на нашем сайте:

Полезная информация:

Новости сайта



02.01.2020
Опубликован Долгосрочный прогноз погоды по городам России и ближнего зарубежья на январь 2020 года.
Карты: Прогноз на январь и февраль 2020 года, Сравнение прогнозируемой аномалии приземной температуры воздуха на январь 2020 года по разным моделям.




Погода Нижний Новгород - сегодня

Время (UTC), дата Ветер
(°,м/с) 
Видим.   Явления Облачность Т
(°С)
Тd
(°С)
f(%) Тe
(°С)
Pmin
(гПа)
dP
(гПа)
Po
(мм)
O2
(г/м3)
Тmin Tmax R s Состояние
почвы
15 21.01.21 210 (ЮЗ) 2-4{06}  10 км    10/10 600 м 
[Sc]
-9.7 -13.2 76 -11  1013.7  -1.8  745  312    -7.5       
18 21.01.21 200 (Ю) 1-2{05}  10 км  слаб. снег  8/8 300 м 
[Sc]
-10.6 -12.3 87 -10  1012.8  -1  744  313           
21 21.01.21 260 (З) 1-2{04}  10 км  слаб. снег  8/8 300 м 
[Sc]
-11.9 -13.6 87 -12  1012.8  744  315           
00 22.01.21 280 (З) 1-2{03}  10 км  слаб. снег  10/6 600 м средняя 
[Sc|Ac As]
-11.9 -13.6 87 -12  1013.6  0.7  745  315           
03 22.01.21 тихо () -0{03}  10 км    10/0 средняя 
[Ac As]
-11.9 -13.7 86 -12  1014.7  746  315  -12.6    0.8  45  неравномерный
сухой снег
100% 
06 22.01.21 тихо () -0{02}  10 км  слаб. снег  10/6 300 м средняя 
[Sc|Ac As]
-11.4 -13.3 86 -11  1015.5  0.9  746  315           
09 22.01.21 170 (Ю) 1-2{03}  10 км  в посл. час снег  10/4 300 м средняя, верхняя 
[Sc|Ac trans|Ci]
-10.5 -13.5 79 -10  1016.5  1.1  747  314           
12 22.01.21 120 (ЮВ) 2-3{03}  10 км  {снег}  10/5 600 м средняя, верхняя 
[Sc|Ac As|Cs]
-10.2 -13.1 79 -12  1016.5  747  314           
15 22.01.21 110 (В) 3-6{06}  10 км  слаб. снег  10/10 300 м 
[Sc]
-10.5 -12.8 83 -14  1017  0.5  747  314    -9.9  0.0     
18 22.01.21 110 (В) 3-5{06}  10 км  {снег}  9/9 300 м 
[Sc]
-10.6 -12.4 87 -14  1017.1  747  314           
21 22.01.21 120 (ЮВ) 3-5{07}  10 км  слаб. снег  10/10 300 м 
[Sc]
-10 -11.8 87 -13  1016.8  -0.2  747  314           
00 23.01.21 130 (ЮВ) 3-6{07}  10 км  слаб. снег  10/10 300 м 
[Sc]
-9.3 -10.8 89 -12  1015.8  -0.9  747  312           
03 23.01.21 110 (В) 2-3{06}  10 км  {снег}  9/5 600 м средняя 
[Sc|Ac trans]
-8.6 -9 97 -10  1015.6  -0.2  746  311  -10.6    45  неравномерный
сухой снег
100% 
06 23.01.21 110 (В) 2-4{04}  1500 м  слаб. переохл. морось (гололёд){снег}  10/10 100 м 
[St]
-7.3 -7.3 100 -9  1014.7  -0.7  746  310           
09 23.01.21 120 (ЮВ) 2-3{04}  4000 м  слаб. снег{морось}  10/10 200 м 
[Frnb]
-4.9 -4.9 100 -6  1014.4  -0.2  746  307           
12 23.01.21 140 (ЮВ) 1-3{04}  4000 м  слаб. снег{морось}  10/10 300 м 
[Frnb]
-3.3 -3.3 100 -3  1013.5  -0.7  745  304           
15 23.01.21 тихо () -0{04}  2000 м  слаб. снег [диам. гололёда 1 мм]  10/10 200 м 
[Frnb]
-2 -2 100 -2  1013.6  0.2  745  303    -2     
18 23.01.21 190 (Ю) 1-4{04}  2000 м  {снег} [диам. гололёда 1 мм]  10/10 200 м 
[St]
+0.2 +0.2 100 +1  1013.6  0.1  745  300           
21 23.01.21 230 (ЮЗ) 1-3{05}  2000 м    10/10 200 м 
[St]
+0.4 +0.4 100 +1  1014.5  746  300           
00 24.01.21 200 (Ю) 1-4{04}  1000 м    10/10 200 м 
[St]
+0.5 +0.5 100 +1  1015.1  0.6  747  300           
03 24.01.21 210 (ЮЗ) 1-3{04}  1000 м    10/10 200 м 
[St]
+0.5 +0.5 100 +1  1015.5  0.3  747  300  -1.9         
06 24.01.21 210 (ЮЗ) 1-4{05}  1000 м    10/10 200 м 
[St]
+0.8 +0.8 100 +1  1016.5  748  300           
09 24.01.21 240 (ЮЗ) 1-4{04}  4000 м  слаб. морось  10/10 200 м 
[St]
+1.3 +1.3 100 +2  1017.2  0.7  748  300           
12 24.01.21 210 (ЮЗ) 1-5{05}  10 км  {морось}  10/10 300 м 
[Sc]
+1.6 +1.6 100 +2  1016.9  -0.2  748  299           
15 24.01.21 200 (Ю) 1-4{05}  10 км  слаб. дождь  10/10 300 м 
[Frnb]
+1.8 +1.8 100 +3  1018.2  1.2  749  299    +1.8  0.0     
Время (UTC), дата Ветер
(°,м/с) 
Видим.   Явления Облачность Т
(°С)
Тd
(°С)
f(%) Тe
(°С)
Pmin
(гПа)
dP
(гПа)
Po
(мм)
O2
(г/м3)
Тmin Tmax R s Состояние
почвы

Для получения пояснительной информации подведите курсор к названию столбца.

ПОГОДА Нижний Новгород - архив

Всё, что Вы хотите узнать о погоде Нижний Новгород - удобно и подробно!

Выберите нужную дату (начиная с 1 января 2019* года) и нажмите кнопку "Найти".
Будут отображены архивные сводки погоды по пункту Нижний Новгород, начиная с указанной даты.


Отображать данные в формате CSV (для использования в таблицах Excel)


Внимание! Наш архив погоды предназначен исключительно для личного некоммерческого использования в познавательных целях. Если Вам необходимы официальные справки о состоянии погоды (для производственных, юридических, коммерческих и т.п. целей), обращайтесь в органы Росгидромета.

*Примечание: данная дата относится к архиву по метеостанциям СССР (Россия, СНГ, Балтия).
Архив по метеостанциям Зарубежной Европы и Азии (кроме Китая) хранится 10 дней, по другим регионам земного шара (Китай, Африка, Америка, Австралия, Океания) - 1 день.

Нижний Новгород - район местоположения метеостанции


Название, широта, долгота, высота метеостанции:
Нижний Новгород (Мыза) 56.3°ш. 44°д. 157 м над ур. моря [Российская Федерация]

Дополнительная информация

В oтличие oт бoльшинства пoгoдных сайтoв мы публикуем пoдрoбную метеoинфoрмацию в детальнoм прoфессиoнальнoм фoрмате.

Характеристики температуры и влажнoсти вoздуха измеряются на высoте 2 м в тени вдали oт зданий и деревьев.
Скoрoсть ветра измеряется на высoте 10 м (на урoвне рoста челoвека скoрoсть ветра ниже в 1.5-2 раза). Если метеoстанция нахoдится в гoрoде или в лесу, тo скoрoсть ветра занижена на 2-4 м/с пo сравнению с oткрытым местoм. Скoрoсть ветра над акватoриями крупных рек и oзёр, а также на вершинах хoлмoв на 2-5 м/с выше, чем в oбычных услoвиях.
Атмoсфернoе давление в разных тoчках местнoсти мoжет значительнo oтличаться oт давления на метеoстанции, в зависимoсти oт услoвий рельефа (при пoдъёме на 10 м давление пoнижается примернo на 1 мм рт.ст.).